[Iaude] MPEC A37: 2024 AO [a=2.26,e=0.56,i=2.4,H=24.0]
    mpec at marsden.cfa.harvard.edu 
    mpec at marsden.cfa.harvard.edu
       
    Thu Jan  4 11:07:49 EST 2024
    
    
  
M.P.E.C. 2024-A37                               Issued 2024 January 4, 16:06 UT
     The Minor Planet Electronic Circulars contain information on unusual
         minor planets, routine data on comets and natural satellites,
         and occasional editorial announcements.  They are published
    on behalf of Division F of the International Astronomical Union by the
          Minor Planet Center, Smithsonian Astrophysical Observatory,
                          Cambridge, MA 02138, U.S.A.
			  
             Prepared using the Tamkin Foundation Computer Network
                              MPC at CFA.HARVARD.EDU
            URL https://www.minorplanetcenter.net/    ISSN 1523-6714
                                    2024 AO                                     
Observations:
     K24A00O* C2024 01 01.26836204 03 58.021+15 45 13.17         22.03wXEA037F52
     K24A00O  C2024 01 01.28005204 03 56.889+15 45 16.68         21.77wXEA037F52
     K24A00O  C2024 01 01.30352804 03 54.533+15 45 24.07         21.98wXEA037F52
     K24A00O 7C2024 01 01.86207904 03 10.329+15 48 01.82         21.8 GVEA037Z84
     K24A00O 7C2024 01 01.88795204 03 07.846+15 48 09.71         21.9 GVEA037Z84
     K24A00O 7C2024 01 01.91381104 03 05.391+15 48 18.25               VEA037Z84
     K24A00O KC2024 01 03.06639604 01 36.30 +15 54 44.2          21.7 GVEA037H21
     K24A00O KC2024 01 03.07727604 01 35.27 +15 54 48.2          22.0 GVEA037H21
     K24A00O KC2024 01 03.08295504 01 34.77 +15 54 50.7          21.8 GVEA037H21
     K24A00O  C2024 01 03.09232404 01 34.775+15 54 56.94         21.4 GVEA037H01
     K24A00O  C2024 01 03.09605704 01 34.433+15 54 58.35         21.5 GVEA037H01
     K24A00O KC2024 01 03.11082004 01 33.229+15 55 04.84         22.13GVEA037I52
     K24A00O KC2024 01 03.11546404 01 32.819+15 55 07.00         22.35GVEA037I52
     K24A00O  C2024 01 03.11829004 01 32.337+15 55 06.93         22.4 GVEA037H01
     K24A00O  C2024 01 03.12391904 01 31.817+15 55 09.17         21.7 GVEA037H01
     K24A00O KC2024 01 03.12474704 01 31.976+15 55 10.60         21.54GVEA037I52
Observer details:
F52 Pan-STARRS 2, Haleakala.  Observers J. Herman, T. Lowe, P. Minguez, A.
    Schultz, I. Smith.  Measurers K. Chambers, T. de Boer, J. Fairlamb, H.
    Gao, M. Huber, C.-C. Lin, E. Magnier, Y. Ramanjooloo, R. Wainscoat, R.
    Weryk.  1.8-m Ritchey-Chretien + CCD.
H01 Magdalena Ridge Observatory, Socorro.  Observers W. H. Ryan, E. V. Ryan.
    Measurer W. H. Ryan.  2.4-m f/8.9 Ritchey-Chretien + CCD.
H21 Astronomical Research Observatory, Westfield.  Observer R. Holmes.
    Measurers T. Linder, R. Holmes, L. Horn.  0.81-m f/4.0 astrograph + CCD.
I52 Steward Observatory, Mt. Lemmon Station.  Observer R. A. Kowalski.
    Measurers E. C. Beshore, D. Fay, J. B. Fazekas, D. C. Fuls, A. R. Gibbs,
    A. D. Grauer, H. Groeller, J. K. Hogan, R. A. Kowalski, S. M. Larson, G.
    J. Leonard, D. Rankin, R. L. Seaman, F. C. Shelly, K. W. Wierzchos.  1.0-m
    prime focus + CCD.
Z84 Calar Alto-Schmidt.  Observers F. Ocana, R. Kresken, M. Micheli, L.
    Conversi.  Measurers F. Ocana, M. Micheli.  0.8-m f/3 Schmidt + CCD.
Orbital elements:
2024 AO                                                  Earth MOID = 0.0187 AU
Epoch 2023 Sept. 13.0 TT = JDT 2460200.5                MPC                     
M 315.23829              (2000.0)            P               Q                  
n   0.29026195     Peri.   30.02662     -0.80701374     -0.58925420             
a   2.2591374      Node   113.81863     +0.53300226     -0.75513052             
e   0.5601166      Incl.    2.43310     +0.25423890     -0.28732800             
P   3.40           H   24.09          G   0.15           U   9                  
Residuals in seconds of arc
240101 F52  0.1+  0.1+    240103 H21  0.1+  0.0     240103 I52  0.2+  0.1+
240101 F52  0.3+  0.1-    240103 H21  0.2-  0.1-    240103 H01  0.4-  0.1-
240101 F52  0.4-  0.0     240103 H21  0.2+  0.2+    240103 H01  0.2-  0.0
240101 Z84  0.1+  0.1+    240103 H01  0.1-  0.1+    240103 I52  0.6+  0.1+
240101 Z84  0.1-  0.4-    240103 H01  0.0   0.0
240101 Z84  0.1+  0.0     240103 I52  0.2-  0.2-
Ephemeris:
2024 AO                  a,e,i = 2.26, 0.56, 2                   q = 0.9938
Date    TT    R. A. (2000) Decl.     Delta      r    Elong.  Phase     V
2023 12 05    04 39 17.5 +15 42 55   0.3386  1.3225   173.4     4.9    22.8
...
2023 12 20    04 20 56.1 +15 18 40   0.2471  1.2162   157.7    17.9    22.4
...
2023 12 28    04 09 45.6 +15 28 56   0.2083  1.1642   147.3    27.1    22.2
...
2024 01 03    04 01 40.5 +15 54 40   0.1821  1.1282   139.6    34.4    22.1
2024 01 04    04 00 23.4 +16 00 54   0.1780  1.1225   138.3    35.6    22.1
2024 01 05    03 59 07.7 +16 07 46   0.1738  1.1168   137.0    36.9    22.0
...
2024 01 11    03 52 09.7 +17 04 45   0.1498  1.0851   129.6    44.3    21.8
...
2024 01 19    03 44 59.0 +19 19 01   0.1189  1.0489   120.3    54.1    21.5
...
2024 02 03    03 38 30.8 +30 57 48   0.06149 1.0042   106.0    70.6    20.5
A. U. Tomatic                (C) Copyright 2024 MPC           M.P.E.C. 2024-A37
    
    
More information about the Iaude
mailing list